| time (UTC) | temp F | wind direction | speed knots | gust knots | rain 1hr in | rain 24hr in | rain mn in | humidity % | barometer mb |
| 20260905204558 | 93 | 288 | 3.5 | 6.1 | 0.00 | 0.26 | 0.26 | 49 | 1012.0 |
| 20260905203111 | 94 | 272 | 0.0 | 2.6 | 0.00 | 0.26 | 0.26 | 50 | 1012.1 |
| 20260905201559 | 94 | 39 | 1.7 | 4.3 | 0.00 | 0.26 | 0.26 | 48 | 1012.4 |
| 20260905200105 | 93 | 280 | 0.9 | 2.6 | 0.00 | 0.26 | 0.26 | 50 | 1012.7 |
| 20260905194600 | 92 | 0 | 0.9 | 5.2 | 0.00 | 0.26 | 0.26 | 51 | 1012.9 |
| 20260905193103 | 92 | 0 | 0.0 | 2.6 | 0.00 | 0.26 | 0.26 | 54 | 1013.0 |
| 20260905191557 | 91 | 0 | 0.0 | 3.5 | 0.00 | 0.26 | 0.26 | 52 | 1013.2 |
| 20260905184611 | 90 | 72 | 0.9 | 2.6 | 0.00 | 0.26 | 0.26 | 52 | 1013.5 |
| 20260905183103 | 90 | 0 | 0.9 | 2.6 | 0.00 | 0.26 | 0.26 | 54 | 1013.9 |
| 20260905181600 | 89 | 86 | 0.0 | 2.6 | 0.00 | 0.26 | 0.26 | 53 | 1014.1 |
| 20260905180108 | 89 | 0 | 0.9 | 2.6 | 0.00 | 0.26 | 0.26 | 55 | 1014.3 |
| 20260905174605 | 88 | 0 | 0.0 | 2.6 | 0.00 | 0.26 | 0.26 | 56 | 1014.2 |
| 20260905173058 | 88 | 117 | 0.9 | 4.3 | 0.00 | 0.26 | 0.26 | 57 | 1014.2 |
| 20260905171635 | 87 | 0 | 0.9 | 4.3 | 0.00 | 0.26 | 0.26 | 57 | 1014.3 |
| 20260905170106 | 87 | 0 | 0.0 | 1.7 | 0.00 | 0.26 | 0.26 | 59 | 1014.6 |
| 20260905164602 | 86 | 105 | 0.0 | 2.6 | 0.00 | 0.26 | 0.26 | 62 | 1014.9 |
| 20260905163057 | 85 | 0 | 1.7 | 4.3 | 0.00 | 0.26 | 0.26 | 62 | 1015.1 |
| 20260905161601 | 84 | 134 | 0.9 | 3.5 | 0.00 | 0.26 | 0.26 | 64 | 1015.1 |
| 20260905160110 | 83 | 216 | 0.9 | 3.5 | 0.00 | 0.26 | 0.26 | 68 | 1015.0 |
| 20260905154620 | 82 | 154 | 0.0 | 2.6 | 0.00 | 0.26 | 0.26 | 68 | 1015.1 |
| 20260905153104 | 81 | 0 | 0.9 | 2.6 | 0.00 | 0.26 | 0.26 | 72 | 1015.2 |
| 20260905151557 | 80 | 0 | 0.0 | 3.5 | 0.00 | 0.26 | 0.26 | 77 | 1015.2 |
| 20260905150107 | 78 | 20 | 0.9 | 2.6 | 0.00 | 0.26 | 0.26 | 80 | 1015.3 |
| 20260905144610 | 77 | 101 | 0.9 | 4.3 | 0.00 | 0.26 | 0.26 | 83 | 1015.5 |
| 20260905143105 | 76 | 98 | 0.9 | 4.3 | 0.00 | 0.26 | 0.26 | 85 | 1015.7 |
| 20260905141602 | 75 | 100 | 0.9 | 3.5 | 0.00 | 0.26 | 0.26 | 90 | 1015.6 |
| 20260905140105 | 74 | 89 | 0.9 | 2.6 | 0.00 | 0.26 | 0.26 | 93 | 1015.7 |
| 20260905134607 | 74 | 114 | 0.0 | 4.3 | 0.21 | 0.26 | 0.26 | 93 | 1016.0 |
| 20260905133106 | 73 | 297 | 0.0 | 6.1 | 0.22 | 0.26 | 0.26 | 94 | 1016.1 |
| 20260905131602 | 72 | 0 | 0.0 | 3.5 | 0.22 | 0.26 | 0.26 | 94 | 1016.2 |
| 20260905130059 | 72 | 18 | 0.0 | 7.0 | 0.22 | 0.26 | 0.26 | 92 | 1016.0 |
| 20260905124556 | 73 | 13 | 1.7 | 5.2 | 0.01 | 0.05 | 0.05 | 91 | 1016.1 |
| 20260905123106 | 73 | 10 | 0.0 | 1.7 | 0.04 | 0.04 | 0.04 | 91 | 1015.5 |
| 20260905121607 | 73 | 0 | 0.0 | 1.7 | 0.04 | 0.04 | 0.04 | 90 | 1015.2 |
| 20260905120100 | 74 | 95 | 0.9 | 1.7 | 0.04 | 0.04 | 0.04 | 89 | 1015.1 |
| 20260905114609 | 76 | 0 | 0.9 | 2.6 | 0.04 | 0.04 | 0.04 | 85 | 1015.0 |
| 20260905113056 | 77 | 0 | 0.0 | 0.9 | 0.00 | 0.00 | 0.00 | 81 | 1014.8 |
| 20260905111627 | 78 | 309 | 1.7 | 5.2 | 0.00 | 0.00 | 0.00 | 82 | 1014.6 |
| 20260905110108 | 78 | 0 | 1.7 | 6.1 | 0.00 | 0.00 | 0.00 | 83 | 1014.4 |
| 20260905104614 | 78 | 23 | 0.9 | 1.7 | 0.00 | 0.00 | 0.00 | 85 | 1014.1 |
| 20260905103102 | 78 | 0 | 0.0 | 0.0 | 0.00 | 0.00 | 0.00 | 84 | 1013.5 |
| 20260905101558 | 78 | 0 | 0.0 | 0.0 | 0.00 | 0.00 | 0.00 | 83 | 1013.5 |
| 20260905100058 | 79 | 0 | 0.0 | 0.0 | 0.00 | 0.00 | 0.00 | 82 | 1013.7 |
| 20260905094719 | 79 | 0 | 0.0 | 0.0 | 0.00 | 0.00 | 0.00 | 81 | 1013.8 |
| 20260905093121 | 80 | 0 | 0.0 | 0.0 | 0.00 | 0.00 | 0.00 | 79 | 1013.8 |
| 20260905091603 | 80 | 0 | 0.0 | 0.0 | 0.00 | 0.00 | 0.00 | 79 | 1013.5 |
| 20260905090100 | 80 | 0 | 0.0 | 0.9 | 0.00 | 0.00 | 0.00 | 82 | 1013.6 |
| 20260905084607 | 80 | 0 | 0.0 | 2.6 | 0.00 | 0.00 | 0.00 | 82 | 1013.7 |
| 20260905083055 | 80 | 0 | 0.0 | 0.0 | 0.00 | 0.00 | 0.00 | 82 | 1013.3 |
| 20260905081605 | 80 | 0 | 0.0 | 0.9 | 0.00 | 0.00 | 0.00 | 81 | 1013.6 |
| 20260905080121 | 80 | 0 | 0.0 | 2.6 | 0.00 | 0.00 | 0.00 | 81 | 1013.5 |
| 20260905074606 | 80 | 0 | 0.0 | 0.0 | 0.00 | 0.00 | 0.00 | 80 | 1013.2 |
| 20260905073111 | 80 | 0 | 0.0 | 0.0 | 0.00 | 0.00 | 0.00 | 80 | 1013.4 |
| 20260905071557 | 80 | 0 | 0.0 | 0.0 | 0.00 | 0.00 | 0.00 | 80 | 1013.5 |
| 20260905070058 | 80 | 0 | 0.0 | 0.0 | 0.00 | 0.00 | 0.00 | 80 | 1013.7 |
| 20260905064608 | 80 | 0 | 0.0 | 0.0 | 0.00 | 0.00 | 0.00 | 81 | 1013.9 |
| 20260905063108 | 80 | 0 | 0.0 | 0.0 | 0.00 | 0.00 | 0.00 | 81 | 1014.1 |
| 20260905061607 | 80 | 0 | 0.0 | 0.0 | 0.00 | 0.00 | 0.00 | 82 | 1014.3 |
| 20260905060110 | 80 | 0 | 0.0 | 0.0 | 0.00 | 0.00 | 0.00 | 83 | 1014.5 |
| 20260905054607 | 80 | 0 | 0.0 | 0.0 | 0.00 | 0.00 | 0.00 | 83 | 1014.6 |
| 20260905053101 | 81 | 0 | 0.0 | 0.0 | 0.00 | 0.00 | 0.00 | 83 | 1014.6 |
| 20260905051610 | 81 | 0 | 0.0 | 0.0 | 0.00 | 0.00 | 0.00 | 82 | 1014.6 |
| 20260905050105 | 81 | 0 | 0.0 | 0.0 | 0.00 | 0.00 | 0.00 | 81 | 1014.6 |
| 20260905044605 | 82 | 0 | 0.0 | 0.0 | 0.00 | 0.00 | 0.00 | 80 | 1014.8 |
| 20260905043102 | 82 | 0 | 0.0 | 0.0 | 0.00 | 0.00 | 0.00 | 78 | 1014.7 |
| 20260905041610 | 82 | 0 | 0.0 | 0.0 | 0.00 | 0.00 | 0.00 | 76 | 1014.7 |
| 20260905040111 | 82 | 0 | 0.0 | 0.0 | 0.00 | 0.00 | 0.00 | 76 | 1014.7 |
| 20260905034603 | 83 | 0 | 0.0 | 0.0 | 0.00 | 0.00 | 0.00 | 75 | 1014.6 |
| 20260905033107 | 83 | 0 | 0.0 | 0.0 | 0.00 | 0.00 | 0.00 | 74 | 1014.8 |
| 20260905031555 | 84 | 0 | 0.0 | 0.0 | 0.00 | 0.00 | 0.00 | 73 | 1014.9 |
| 20260905030111 | 84 | 0 | 0.0 | 0.0 | 0.00 | 0.00 | 0.00 | 71 | 1015.0 |
| 20260905024607 | 84 | 0 | 0.0 | 0.0 | 0.00 | 0.00 | 0.00 | 70 | 1015.0 |
| 20260905023059 | 85 | 0 | 0.0 | 0.0 | 0.00 | 0.00 | 0.00 | 68 | 1014.8 |
| 20260905021603 | 85 | 0 | 0.0 | 0.0 | 0.00 | 0.00 | 0.00 | 67 | 1014.8 |
| 20260905020108 | 86 | 0 | 0.0 | 0.0 | 0.00 | 0.00 | 0.00 | 66 | 1014.7 |
| 20260905014600 | 87 | 0 | 0.0 | 0.0 | 0.00 | 0.00 | 0.00 | 66 | 1014.6 |
| 20260905013121 | 87 | 0 | 0.0 | 0.0 | 0.00 | 0.00 | 0.00 | 64 | 1014.4 |
| 20260905011607 | 88 | 0 | 0.0 | 0.0 | 0.00 | 0.00 | 0.00 | 63 | 1014.2 |
| 20260905010106 | 88 | 0 | 0.0 | 0.0 | 0.00 | 0.00 | 0.00 | 63 | 1014.1 |
| 20260905004559 | 88 | 0 | 0.0 | 0.0 | 0.00 | 0.00 | 0.00 | 63 | 1013.9 |
| 20260905003103 | 89 | 0 | 0.0 | 0.0 | 0.00 | 0.00 | 0.00 | 62 | 1014.0 |
| 20260905001604 | 90 | 0 | 0.0 | 0.0 | 0.00 | 0.00 | 0.00 | 59 | 1013.7 |
| 20260905000101 | 91 | 0 | 0.0 | 0.0 | 0.00 | 0.00 | 0.00 | 56 | 1013.7 |
| 20260904234600 | 92 | 0 | 0.0 | 0.0 | 0.00 | 0.00 | 0.00 | 54 | 1013.6 |
| 20260904233106 | 93 | 0 | 0.0 | 0.0 | 0.00 | 0.00 | 0.00 | 52 | 1013.7 |
| 20260904231601 | 94 | 0 | 0.0 | 0.0 | 0.00 | 0.00 | 0.00 | 49 | 1013.8 |
| 20260904230111 | 94 | 0 | 0.9 | 2.6 | 0.00 | 0.00 | 0.00 | 48 | 1013.8 |
| 20260904224621 | 95 | 0 | 0.0 | 2.6 | 0.00 | 0.00 | 0.00 | 49 | 1014.0 |
| 20260904223109 | 96 | 60 | 0.9 | 4.3 | 0.00 | 0.00 | 0.00 | 48 | 1014.1 |
| 20260904221625 | 96 | 0 | 0.0 | 3.5 | 0.00 | 0.00 | 0.00 | 47 | 1014.1 |
| 20260904220106 | 96 | 0 | 0.0 | 1.7 | 0.00 | 0.00 | 0.00 | 47 | 1014.1 |
| 20260904214601 | 95 | 0 | 0.0 | 2.6 | 0.00 | 0.00 | 0.00 | 48 | 1014.2 |
| 20260904213108 | 95 | 8 | 0.0 | 2.6 | 0.00 | 0.00 | 0.00 | 48 | 1014.4 |
| 20260904211604 | 95 | 3 | 0.9 | 5.2 | 0.00 | 0.00 | 0.00 | 47 | 1014.3 |
| 20260904210111 | 96 | 30 | 0.9 | 4.3 | 0.00 | 0.00 | 0.00 | 47 | 1014.3 |